N12KBM KMCO-KORL

Flight info

Callsign N12KBM
Flight time 0h -6m
Altitude VFR
Route
Aircraft PA28/L-DOV/C

Departure

Time 2026-05-05 00:07
Airport Orlando International Airport (KMCO)

Arrival

Time 2026-05-05 00:00
Airport Orlando Executive Airport (KORL)
Time Latitude Longitude Altitude Speed Heading
2026-05-05 00:00 28.43401 -81.33015 103 ft 0 kts 86°
2026-05-05 00:03 28.43392 -81.32979 103 ft 9 kts 142°
2026-05-05 00:04 28.43313 -81.32924 103 ft 8 kts 188°
2026-05-05 00:04 28.43215 -81.32926 105 ft 20 kts 181°
2026-05-05 00:04 28.43081 -81.32924 105 ft 18 kts 179°
2026-05-05 00:04 28.42953 -81.32923 102 ft 19 kts 179°
2026-05-05 00:05 28.42822 -81.32917 99 ft 19 kts 178°
2026-05-05 00:05 28.42700 -81.32914 99 ft 17 kts 171°
2026-05-05 00:05 28.42652 -81.32831 98 ft 14 kts 92°
2026-05-05 00:05 28.42652 -81.32783 98 ft 0 kts 89°
2026-05-05 00:06 28.42653 -81.32769 98 ft 12 kts 87°
2026-05-05 00:06 28.42740 -81.32672 99 ft 33 kts
2026-05-05 00:06 28.43161 -81.32662 166 ft 78 kts 359°
2026-05-05 00:06 28.43707 -81.32824 404 ft 90 kts 315°
2026-05-05 00:07 28.43896 -81.33551 608 ft 105 kts 265°
2026-05-05 00:07 28.43590 -81.34316 851 ft 111 kts 239°
2026-05-05 00:07 28.43118 -81.34994 1214 ft 106 kts 205°
2026-05-05 00:07 28.42332 -81.34919 1316 ft 126 kts 172°
2026-05-05 00:08 28.41390 -81.34775 1282 ft 137 kts 174°
2026-05-05 00:08 28.40518 -81.34667 1230 ft 118 kts 176°
2026-05-05 00:08 28.39732 -81.34542 1157 ft 110 kts 150°
2026-05-05 00:08 28.39463 -81.33782 1075 ft 109 kts 102°
2026-05-05 00:09 28.39416 -81.32849 603 ft 131 kts 72°
2026-05-05 00:09 28.39838 -81.32411 507 ft 121 kts 30°